Home   Weather   Port-aux-Francais   Past weeks

Flag for French Southern Territories Past Weather in Port-aux-Francais, French Southern Territories — Yesterday and Last 2 Weeks

Now
39 °F

Chilly.


Feels Like: 27 °F
Forecast: 37 / 43 °F
Wind: 32 mph from Northwest

Location: Port-Aux-Francais Iles Kerguelen

Current Time: Aug 21, 2017 at 2:24:25 am

Latest Report: Aug 21, 2017 at 2:00 am


Visibility: N/A

Pressure: 29.92 "Hg

Humidity: 70%

Dew Point: 30 °F

Location of Port-aux-FrancaisLocation

Past Weather in Port-aux-Francais — Graph

°F

Port-aux-Francais Temperature Yesterday

Maximum temperature yesterday: 46 °F (at 12:00 pm)
Minimum temperature yesterday: 37 °F (at 12:00 am)
Average temperature yesterday: 42 °F

High & Low Weather Summary for the Past Weeks

 TemperatureHumidityPressure
High53 °F (Aug 16, 10:00 pm)100% (Aug 6, 1:00 am)30.32 "Hg (Aug 6, 1:00 am)
Low29 °F (Aug 9, 2:00 am)49% (Aug 15, 12:00 pm)28.56 "Hg (Aug 8, 6:00 am)
Average39 °F74%29.86 "Hg
* Reported Aug 6 1:00 am — Aug 21 1:00 am, Port-aux-Francais. Weather by CustomWeather, © 2017

Note: Actual official high and low records may vary slightly from our data, if they occured in-between our weather recording intervals... More about our weather records

Advertising

Port-aux-Francais Weather History for the Previous 24 Hours

Scroll right to see more
 ConditionsComfort  
Time TempWeatherWind HumidityBarometerVisibility
1:00 am
Mon, Aug 21
40 °FQuite cool.24 mph73%29.96 "HgN/A
12:00 am40 °FQuite cool.20 mph72%29.97 "HgN/A
11:00 pm
Sun, Aug 20
40 °FQuite cool.22 mph71%29.98 "HgN/A
10:00 pm41 °FQuite cool.24 mph66%30.00 "HgN/A
9:00 pm42 °FQuite cool.28 mph67%29.99 "HgN/A
8:00 pm41 °FQuite cool.20 mph70%30.01 "HgN/A
7:00 pm42 °FQuite cool.18 mph67%30.01 "HgN/A
6:00 pm44 °FQuite cool.12 mph64%30.01 "HgN/A
5:00 pm46 °FCool.12 mph57%29.99 "HgN/A
4:00 pm46 °FCool.20 mph57%29.99 "HgN/A
3:00 pm45 °FQuite cool.20 mph61%29.96 "HgN/A
2:00 pm45 °FQuite cool.23 mph62%29.95 "HgN/A
1:00 pm45 °FCool.23 mph62%29.95 "HgN/A
12:00 pm46 °FCool.32 mph62%29.93 "HgN/A
11:00 am44 °FQuite cool.28 mph66%29.95 "HgN/A
10:00 am43 °FQuite cool.29 mph66%29.97 "HgN/A
9:00 am41 °FQuite cool.22 mph69%29.98 "HgN/A
8:00 am40 °FChilly.24 mph70%29.96 "HgN/A
7:00 am40 °FQuite cool.20 mph66%29.98 "HgN/A
6:00 am40 °FChilly.20 mph68%29.97 "HgN/A
5:00 am39 °FChilly.23 mph71%29.96 "HgN/A
4:00 am39 °FChilly.26 mph72%29.96 "HgN/A
3:00 am38 °FChilly.23 mph71%29.97 "HgN/A
2:00 am38 °FChilly.28 mph71%29.97 "HgN/A
Weather by CustomWeather, © 2017

See weather overviewHow to use our weather pages